* Astronomy

Members Login
Post Info TOPIC: Asteroid 2009 YD7


L

Posts: 131433
Date:
RE: Asteroid 2009 YD7
Permalink  
 


The 45 - 105 km wide TNO 2009 YD7 was discovered on the 16th December, 2009, by D. Rabinowitz (La Silla).

__________________


L

Posts: 131433
Date:
Permalink  
 

Orbital elements:
2009 YD7
Epoch 2009 Nov. 25.0 TT = JDT 2455160.5 MPC
M 358.90326 (2000.0) P Q
n 0.00073357 Peri. 326.81444 -0.11145727 -0.90326797
a 121.7611112 Node 125.99288 +0.98624346 -0.15175557
e 0.8900669 Incl. 30.80488 +0.12207016 +0.40134428
P1344 H 8.7 G 0.15
From 12 observations 2009 Nov. 13-Dec. 17.

MPEC 2009 - Y47


__________________
Page 1 of 1  sorted by
Quick Reply

Please log in to post quick replies.



Create your own FREE Forum
Report Abuse
Powered by ActiveBoard